Weather History for Laramie, WY

Change the Weather History Date:

Thursday, February 21, 2013

  Actual Average Record
Temperature  
Mean Temperature 10 °F 25 °F  
Max Temperature 21 °F 36 °F 60 °F (1982)
Min Temperature -2 °F 13 °F -12 °F (1955)
Degree Days  
Heating Degree Days 55 40  
Month to date heating degree days 881 885  
Since 1 July heating degree days 5542 5900  
Cooling Degree Days 0 0  
Month to date cooling degree days 0 0  
Year to date cooling degree days 0 0  
Moisture  
Dew Point 13 °F    
Average Humidity 87    
Maximum Humidity 96    
Minimum Humidity 77    
Precipitation  
Precipitation 0.04 in 0.01 in 0.12 in (1962)
Month to date precipitation 0.07 0.24  
Year to date precipitation 0.22 0.51  
Sea Level Pressure  
Sea Level Pressure 29.73 in    
Wind  
Wind Speed 8 mph (North)    
Max Wind Speed 20 mph    
Max Gust Speed 24 mph    
Visibility 4 miles    
Events Fog , Snow    
T = Trace of Precipitation, MM = Missing Value Source: NWS Daily Summary

Daily Weather History Graph

Daily Weather History Graph

Search for Another Location

Airport:

Trip Planner

Search our weather history database for the weather conditions in past years. The results will help you decide how hot, cold, wet, or windy it might be!

Date:

Astronomy

Feb. 21, 2013 Rise Set
Actual Time 6:48 AM MST 5:44 PM MST
Civil Twilight 6:20 AM MST 6:12 PM MST
Nautical Twilight 5:48 AM MST 6:44 PM MST
Astronomical Twilight 5:16 AM MST 7:16 PM MST
Moon 2:00 PM MST (2/21) 3:56 AM MST (2/21)
Length of Visible Light 11h 51m
Length of Day
10h 55m
Waxing Gibbous, 84% of the Moon is Illuminated
Feb 21
Waxing Gibbous
Feb 25
Full
Mar 4
Last Quarter
Mar 11
New
Mar 19
First Quarter

Hourly Weather History & Observations

Time (MST) Temp. Windchill Dew Point Humidity Pressure Visibility Wind Dir Wind Speed Gust Speed Precip Events Conditions
12:53 AM 17.1 °F 11.7 °F 16.0 °F 96% 29.58 in 10.0 mi NNW 3.5 mph - N/A   Mostly Cloudy
1:20 AM 19.4 °F 12.8 °F 17.6 °F 93% 29.59 in 9.0 mi NNW 4.6 mph - N/A   Overcast
1:38 AM 19.4 °F 12.8 °F 17.6 °F 93% 29.59 in - NNW 4.6 mph - 0.00 in Snow Light Snow
1:41 AM 19.4 °F 11.5 °F 17.6 °F 93% 29.59 in 1.2 mi NNW 5.8 mph - 0.00 in Snow Light Snow
1:49 AM 19.4 °F 11.5 °F 17.6 °F 93% 29.59 in 1.5 mi NNW 5.8 mph - 0.00 in Snow Light Snow
1:53 AM 19.0 °F 12.3 °F 17.1 °F 92% 29.59 in 2.0 mi NNW 4.6 mph - 0.00 in Snow Light Snow
2:38 AM 19.4 °F 12.8 °F 17.6 °F 93% 29.58 in 1.5 mi North 4.6 mph - 0.01 in Snow Light Snow
2:53 AM 19.0 °F 12.3 °F 17.1 °F 92% 29.60 in 1.5 mi North 4.6 mph - 0.02 in Snow Light Snow
3:16 AM 19.4 °F 10.4 °F 15.8 °F 86% 29.59 in 1.0 mi NE 6.9 mph - 0.01 in Snow Light Snow
3:34 AM 17.6 °F 8.2 °F 15.8 °F 93% 29.59 in 1.8 mi NE 6.9 mph - 0.01 in Snow Light Snow
4:18 AM 15.8 °F 2.7 °F 12.2 °F 86% 29.60 in 4.0 mi North 11.5 mph - 0.00 in Snow Light Snow
5:46 AM 15.8 °F 2.7 °F 12.2 °F 86% 29.63 in 2.0 mi North 11.5 mph - 0.00 in Snow Light Snow
5:53 AM 15.1 °F 2.5 °F 12.9 °F 91% 29.73 in 2.0 mi North 10.4 mph - 0.00 in Snow Light Snow
6:07 AM 15.8 °F 2.7 °F 12.2 °F 86% 29.64 in 1.5 mi North 11.5 mph - 0.00 in Snow Light Snow
6:53 AM 15.1 °F 5.2 °F 12.9 °F 91% 29.78 in 1.5 mi North 6.9 mph - 0.00 in Snow Light Snow
7:02 AM 15.8 °F 7.2 °F 12.2 °F 86% 29.66 in 1.2 mi North 5.8 mph - 0.00 in Snow Light Snow
7:12 AM 15.8 °F 6.1 °F 12.2 °F 86% 29.66 in 2.0 mi North 6.9 mph - 0.00 in Snow Light Snow
7:26 AM 15.8 °F 5.1 °F 12.2 °F 86% 29.67 in 1.5 mi North 8.1 mph - 0.00 in Snow Light Snow
7:53 AM 16.0 °F 5.3 °F 14.0 °F 92% 29.81 in 1.0 mi North 8.1 mph - 0.01 in Snow Light Snow
8:53 AM 18.0 °F 8.7 °F 14.0 °F 84% 29.83 in 1.2 mi NNE 6.9 mph - 0.00 in Snow Light Snow
9:13 AM 17.6 °F 8.2 °F 14.0 °F 86% 29.69 in 3.0 mi North 6.9 mph - 0.00 in Snow Light Snow
9:22 AM 17.6 °F 7.3 °F 14.0 °F 86% 29.69 in 2.5 mi North 8.1 mph - 0.00 in Snow Light Snow
9:29 AM 17.6 °F 8.2 °F 14.0 °F 86% 29.70 in 3.0 mi North 6.9 mph - 0.00 in Snow Light Snow
9:37 AM 17.6 °F 8.2 °F 14.0 °F 86% 29.70 in 2.0 mi North 6.9 mph - 0.00 in Snow Light Snow
9:44 AM 17.6 °F 6.4 °F 14.0 °F 86% 29.70 in 2.0 mi North 9.2 mph - 0.00 in Snow Light Snow
9:53 AM 18.0 °F 7.7 °F 14.0 °F 84% 29.83 in 3.0 mi North 8.1 mph - 0.00 in Snow Light Snow
10:07 AM 17.6 °F 9.3 °F 12.2 °F 79% 29.70 in 3.0 mi North 5.8 mph - 0.00 in Snow Light Snow
10:11 AM 17.6 °F 8.2 °F 14.0 °F 86% 29.70 in 2.5 mi North 6.9 mph - 0.00 in Snow Light Snow
10:21 AM 17.6 °F 8.2 °F 14.0 °F 86% 29.71 in 1.5 mi North 6.9 mph - 0.00 in Snow Light Snow
10:34 AM 19.4 °F 11.5 °F 14.0 °F 80% 29.71 in 2.5 mi North 5.8 mph - 0.00 in Snow Light Snow
10:41 AM 19.4 °F 9.5 °F 14.0 °F 80% 29.71 in 3.0 mi North 8.1 mph - 0.00 in Snow Light Snow
10:50 AM 19.4 °F 8.6 °F 14.0 °F 80% 29.71 in 2.0 mi North 9.2 mph - 0.00 in Snow Light Snow
10:53 AM 19.0 °F 8.2 °F 14.0 °F 81% 29.84 in 2.0 mi North 9.2 mph - 0.00 in Snow Light Snow
10:56 AM 19.4 °F 7.9 °F 15.8 °F 86% 29.71 in 1.8 mi NNW 10.4 mph - 0.00 in Snow Light Snow
11:11 AM 19.4 °F 6.0 °F 15.8 °F 86% 29.71 in 2.5 mi NNW 13.8 mph - 0.00 in Snow Light Snow
11:19 AM 19.4 °F 6.0 °F 15.8 °F 86% 29.71 in - NNW 13.8 mph - 0.00 in Snow Light Snow
11:29 AM 19.4 °F 5.5 °F 15.8 °F 86% 29.70 in 1.8 mi NNW 15.0 mph - 0.00 in Snow Light Snow
11:47 AM 19.4 °F 7.9 °F 15.8 °F 86% 29.71 in 0.8 mi North 10.4 mph - 0.00 in Snow Light Snow
11:53 AM 19.9 °F 7.9 °F 15.1 °F 81% 29.82 in 0.8 mi NNW 11.5 mph - 0.00 in Snow Light Snow
12:05 PM 19.4 °F 6.6 °F 15.8 °F 86% 29.70 in 1.0 mi North 12.7 mph - 0.00 in Snow Light Snow
12:20 PM 19.4 °F 6.6 °F 15.8 °F 86% 29.70 in 4.0 mi North 12.7 mph - 0.00 in Snow Light Snow
12:37 PM 19.4 °F 5.5 °F 15.8 °F 86% 29.69 in 5.0 mi NNW 15.0 mph - 0.00 in Snow Light Snow
12:51 PM 19.4 °F 6.6 °F 14.0 °F 80% 29.69 in 6.0 mi NNW 12.7 mph - 0.00 in Snow Light Snow
12:53 PM 19.9 °F 7.3 °F 15.1 °F 81% 29.81 in 5.0 mi NNW 12.7 mph - 0.00 in Snow Light Snow
1:11 PM 19.4 °F 5.0 °F 14.0 °F 80% 29.68 in 4.0 mi NNW 16.1 mph - 0.00 in Snow Light Snow
1:26 PM 19.4 °F 5.0 °F 15.8 °F 86% 29.68 in 9.0 mi NNW 16.1 mph - 0.00 in   Mostly Cloudy
1:53 PM 19.9 °F 5.2 °F 15.1 °F 81% 29.79 in - NNW 17.3 mph - 0.00 in   Overcast
2:32 PM 19.4 °F 5.5 °F 14.0 °F 80% 29.68 in 10.0 mi NNW 15.0 mph - 0.00 in   Mostly Cloudy
2:53 PM 19.9 °F 7.9 °F 14.0 °F 78% 29.80 in 10.0 mi NNW 11.5 mph - 0.00 in   Mostly Cloudy
3:53 PM 19.0 °F 4.5 °F 14.0 °F 81% 29.82 in 9.0 mi NNW 16.1 mph - 0.00 in Snow Light Snow
4:53 PM 18.0 °F 3.1 °F 12.0 °F 78% 29.87 in 10.0 mi NNW 16.1 mph - 0.00 in   Overcast
5:53 PM 16.0 °F 2.3 °F 10.0 °F 77% 29.88 in 10.0 mi North 12.7 mph - N/A   Mostly Cloudy
6:53 PM 16.0 °F 4.4 °F 12.0 °F 84% 29.90 in 10.0 mi North 9.2 mph - N/A   Overcast
7:53 PM 14.0 °F 5.1 °F 10.9 °F 88% 29.93 in 10.0 mi North 5.8 mph - N/A   Partly Cloudy
8:53 PM 12.0 °F - 9.0 °F 88% 29.93 in 10.0 mi Calm Calm - N/A   Clear
9:53 PM 10.9 °F 4.7 °F 9.0 °F 92% 29.94 in 10.0 mi NNE 3.5 mph - N/A   Clear
10:22 PM 5.0 °F -4.1 °F 3.2 °F 92% 29.77 in 1.2 mi South 4.6 mph - N/A   Clear
10:26 PM 3.2 °F -6.2 °F 1.4 °F 92% 29.77 in 0.8 mi South 4.6 mph - N/A   Mist
10:31 PM 3.2 °F -4.2 °F 1.4 °F 92% 29.77 in 1.2 mi South 3.5 mph - N/A   Partly Cloudy
10:34 PM 3.2 °F -4.2 °F 1.4 °F 92% 29.77 in 3.0 mi South 3.5 mph - N/A   Clear
10:45 PM 3.2 °F -4.2 °F -0.4 °F 85% 29.77 in 2.5 mi SW 3.5 mph - N/A   Partly Cloudy
10:49 PM 1.4 °F -8.3 °F -0.4 °F 92% 29.77 in 1.0 mi SSW 4.6 mph - N/A   Mist
11:53 PM 1.0 °F -6.7 °F -0.0 °F 95% 29.98 in 0.2 mi SW 3.5 mph - N/A Fog Light Freezing Fog